{"data":{"norad_id":67769,"intl_designator":"2026-030F","name":"KUIPER-00197","alt_names":[],"object_type":"PAYLOAD","status":"ACTIVE","operator":null,"country":"US","launch_date":"2026-02-12","launch_site_code":"FRGUI","launch_vehicle":null,"mission":null,"orbit_class":"UNKNOWN","rcs_meters":null,"size_class":null,"mass_kg":null,"dimensions":null,"purposes":[],"wikipedia_slug":null,"has_3d_model":false,"image_url":null,"decayed_at":null,"tle_current":{"epoch":"2026-09-20T13:40:42.139488Z","epoch_age_seconds":83173,"freshness":"FRESH","line1":"1 67769U 26030F   26263.56993217  .00001952  00000+0  28499-3 0  9998","line2":"2 67769  51.8999  46.3553 0000611 121.9147 238.1875 14.79934516 34388","mean_motion":14.79934516,"eccentricity":6.11e-5,"inclination_deg":51.8999,"raan_deg":46.3553,"arg_perigee_deg":121.9147,"mean_anomaly_deg":238.1875,"bstar":0.00028499,"rev_number":3438,"period_min":97.301602498742,"perigee_km":629.1026750375,"apogee_km":629.95901204798,"semimajor_km":7007.6678435427,"source":"CELESTRAK","updated_at":"2026-09-21T09:00:16.828258Z"}}}